Location: Drocourt
(49.0571°N, 1.7669°E)
Time: 15:41:21
(UTC+00:00)

Vanguard 2 Rocket - Pass Details

Date: 21 April 2024
Orbit: 556 x 3304 km, 32.9° (Epoch: 22 May)

Event Time Altitude Azimuth Distance (km) Brightness Sun altitude
Rises 20:39:00 0° 223° (SW) 5,980 11.1 -15.5°
Reaches altitude 10° 20:42:56 10° 216° (SW) 5,299 10.7 -16.0°
Maximum altitude 20:57:45 38° 156° (SSE) 4,205 9.7 -17.7°
Drops below altitude 10° 21:15:00 10° 98° (E) 6,158 10.7 -19.7°
Sets 21:20:00 0° 91° (E) 7,012 11.0 -20.2°
